When you browse on this site, cookies collect data to enhance your experience and personalize the content and advertising you see.
Visit our Privacy Policy to learn more. By continuing to use the site, you agree to this use of cookies and data.
  • Em Portugal
  • Lista de países
  • Para 7 dias
  • Temperatura da água
  • Mapas de satélite
  • Mapa do tempo
  • Widgets de tempo
  • user-avatar
    Iniciar Sessão

    Previsão horária em Sedziszowice

    Hoje, 26 Junho, Quarta-feira

    Tempo Temperatura Precipitação Vento Pressão Humidade
    00:00 +23°C° 0 mm 2 m/s 752 mmHg 94%
    01:00 +22°C° 0 mm 1 m/s 752 mmHg 94%
    02:00 +22°C° 0 mm 1 m/s 751 mmHg 94%
    03:00 +22°C° 0 mm 1 m/s 751 mmHg 93%
    04:00 +22°C° 0 mm 1 m/s 751 mmHg 93%
    05:00 +23°C° 0 mm 1 m/s 751 mmHg 88%
    06:00 +25°C° 0 mm 1 m/s 751 mmHg 83%
    07:00 +27°C° 0 mm 1 m/s 751 mmHg 77%
    08:00 +28°C° 0 mm 1 m/s 751 mmHg 72%
    09:00 +30°C° 0 mm 1 m/s 751 mmHg 67%
    10:00 +31°C° 0 mm 1 m/s 751 mmHg 62%
    11:00 +32°C° 0 mm 1 m/s 750 mmHg 57%
    12:00 +34°C° 0 mm 2 m/s 750 mmHg 52%
    13:00 +35°C° 0 mm 2 m/s 750 mmHg 48%
    14:00 +35°C° 0 mm 2 m/s 749 mmHg 49%
    15:00 +35°C° 0 mm 3 m/s 749 mmHg 50%
    16:00 +35°C° 0 mm 3 m/s 748 mmHg 51%
    17:00 +33°C° 0 mm 3 m/s 748 mmHg 57%
    18:00 +30°C° 0 mm 3 m/s 748 mmHg 63%
    19:00 +29°C° 0 mm 3 m/s 748 mmHg 69%
    20:00 +28°C° 0 mm 4 m/s 747 mmHg 71%
    21:00 +27°C° 0 mm 4 m/s 747 mmHg 74%
    22:00 +26°C° 0 mm 4 m/s 747 mmHg 76%
    23:00 +26°C° 0.1 mm 4 m/s 747 mmHg 77%

    Amanhã, 27 Junho, Quinta-feira

    Tempo Temperatura Precipitação Vento Pressão Humidade
    00:00 +25°C° 0.1 mm 4 m/s 747 mmHg 79%
    01:00 +25°C° 0.1 mm 5 m/s 747 mmHg 80%
    02:00 +25°C° 1.2 mm 5 m/s 746 mmHg 84%
    03:00 +23°C° 1.2 mm 5 m/s 746 mmHg 87%
    04:00 +23°C° 1.2 mm 5 m/s 746 mmHg 91%
    05:00 +23°C° 0.3 mm 5 m/s 746 mmHg 90%
    06:00 +23°C° 0.3 mm 5 m/s 746 mmHg 89%
    07:00 +25°C° 0.3 mm 5 m/s 746 mmHg 88%
    08:00 +24°C° 0.1 mm 6 m/s 746 mmHg 81%
    09:00 +26°C° 0.1 mm 7 m/s 746 mmHg 73%
    10:00 +26°C° 0.1 mm 7 m/s 746 mmHg 66%
    11:00 +26°C° 0 mm 8 m/s 746 mmHg 60%
    12:00 +26°C° 0 mm 8 m/s 746 mmHg 53%
    13:00 +26°C° 0 mm 8 m/s 745 mmHg 47%
    14:00 +26°C° 0 mm 7 m/s 745 mmHg 48%
    15:00 +24°C° 0 mm 7 m/s 745 mmHg 49%
    16:00 +24°C° 0 mm 7 m/s 745 mmHg 50%
    17:00 +22°C° 0 mm 6 m/s 745 mmHg 56%
    18:00 +21°C° 0 mm 5 m/s 745 mmHg 62%
    19:00 +20°C° 0 mm 5 m/s 745 mmHg 68%
    20:00 +19°C° 0 mm 4 m/s 745 mmHg 71%
    21:00 +18°C° 0 mm 4 m/s 746 mmHg 73%
    22:00 +17°C° 0 mm 4 m/s 746 mmHg 75%
    23:00 +15°C° 0 mm 4 m/s 746 mmHg 80%

    Depois de amanhã, 28 Junho, Sexta-feira

    Tempo Temperatura Precipitação Vento Pressão Humidade
    00:00 +15°C° 0 mm 4 m/s 746 mmHg 84%
    01:00 +14°C° 0 mm 4 m/s 746 mmHg 89%
    02:00 +14°C° 0 mm 4 m/s 747 mmHg 91%
    03:00 +13°C° 0 mm 4 m/s 747 mmHg 94%
    04:00 +13°C° 0 mm 4 m/s 747 mmHg 96%
    05:00 +14°C° 0 mm 4 m/s 747 mmHg 87%
    06:00 +16°C° 0 mm 3 m/s 747 mmHg 77%
    07:00 +17°C° 0 mm 3 m/s 747 mmHg 68%
    08:00 +18°C° 0 mm 4 m/s 747 mmHg 62%
    09:00 +19°C° 0 mm 4 m/s 747 mmHg 57%
    10:00 +20°C° 0 mm 5 m/s 747 mmHg 52%
    11:00 +21°C° 0 mm 4 m/s 747 mmHg 52%
    12:00 +21°C° 0 mm 4 m/s 747 mmHg 52%
    13:00 +22°C° 0 mm 4 m/s 747 mmHg 52%
    14:00 +22°C° 0.1 mm 4 m/s 747 mmHg 54%
    15:00 +22°C° 0.1 mm 4 m/s 746 mmHg 55%
    16:00 +22°C° 0.1 mm 4 m/s 746 mmHg 57%
    17:00 +21°C° 0.3 mm 4 m/s 746 mmHg 66%
    18:00 +20°C° 0.3 mm 4 m/s 746 mmHg 74%
    19:00 +18°C° 0.3 mm 3 m/s 746 mmHg 83%
    20:00 +17°C° 0 mm 3 m/s 747 mmHg 82%
    21:00 +14°C° 0 mm 3 m/s 747 mmHg 82%
    22:00 +13°C° 0 mm 3 m/s 747 mmHg 81%
    23:00 +12°C° 0 mm 3 m/s 748 mmHg 83%

    29 Junho, Sábado

    Tempo Temperatura Precipitação Vento Pressão Humidade
    00:00 +11°C° 0 mm 3 m/s 748 mmHg 84%
    01:00 +10°C° 0 mm 3 m/s 748 mmHg 86%
    02:00 +10°C° 0 mm 3 m/s 748 mmHg 85%
    03:00 +10°C° 0 mm 3 m/s 748 mmHg 85%
    04:00 +9°C° 0 mm 2 m/s 748 mmHg 84%
    05:00 +11°C° 0 mm 3 m/s 748 mmHg 78%
    06:00 +13°C° 0 mm 3 m/s 748 mmHg 72%
    07:00 +15°C° 0 mm 4 m/s 748 mmHg 65%
    08:00 +18°C° 0 mm 4 m/s 749 mmHg 61%
    09:00 +19°C° 0 mm 4 m/s 749 mmHg 57%
    10:00 +21°C° 0 mm 5 m/s 749 mmHg 53%
    11:00 +21°C° 0 mm 5 m/s 749 mmHg 52%
    12:00 +22°C° 0 mm 5 m/s 748 mmHg 51%
    13:00 +23°C° 0 mm 5 m/s 748 mmHg 50%
    14:00 +23°C° 0 mm 4 m/s 748 mmHg 50%
    15:00 +23°C° 0 mm 4 m/s 748 mmHg 51%
    16:00 +25°C° 0 mm 4 m/s 747 mmHg 51%
    17:00 +22°C° 0 mm 3 m/s 748 mmHg 57%
    18:00 +21°C° 0 mm 2 m/s 748 mmHg 63%
    19:00 +20°C° 0 mm 2 m/s 748 mmHg 68%
    20:00 +19°C° 0 mm 2 m/s 748 mmHg 70%
    21:00 +18°C° 0 mm 2 m/s 748 mmHg 71%
    22:00 +16°C° 0 mm 1 m/s 748 mmHg 73%
    23:00 +16°C° 0 mm 2 m/s 748 mmHg 74%

    30 Junho, Domingo

    Tempo Temperatura Precipitação Vento Pressão Humidade
    00:00 +15°C° 0 mm 2 m/s 748 mmHg 74%
    01:00 +15°C° 0 mm 2 m/s 748 mmHg 75%
    02:00 +15°C° 0 mm 2 m/s 748 mmHg 76%
    03:00 +14°C° 0 mm 2 m/s 748 mmHg 77%
    04:00 +14°C° 0 mm 2 m/s 748 mmHg 78%
    05:00 +16°C° 0 mm 2 m/s 748 mmHg 74%
    06:00 +18°C° 0 mm 2 m/s 748 mmHg 69%
    07:00 +20°C° 0 mm 2 m/s 748 mmHg 64%
    08:00 +23°C° 0 mm 2 m/s 748 mmHg 58%
    09:00 +25°C° 0 mm 2 m/s 748 mmHg 53%
    10:00 +26°C° 0 mm 2 m/s 748 mmHg 48%
    11:00 +27°C° 0 mm 2 m/s 748 mmHg 46%
    12:00 +28°C° 0 mm 2 m/s 748 mmHg 44%
    13:00 +29°C° 0 mm 2 m/s 747 mmHg 42%
    14:00 +29°C° 0 mm 2 m/s 747 mmHg 42%
    15:00 +29°C° 0 mm 1 m/s 747 mmHg 43%
    16:00 +30°C° 0 mm 1 m/s 747 mmHg 43%
    17:00 +28°C° 0 mm 2 m/s 746 mmHg 51%
    18:00 +26°C° 0 mm 2 m/s 746 mmHg 59%
    19:00 +25°C° 0 mm 3 m/s 746 mmHg 68%
    20:00 +23°C° 0 mm 2 m/s 746 mmHg 71%
    21:00 +21°C° 0 mm 2 m/s 746 mmHg 75%
    22:00 +20°C° 0 mm 2 m/s 746 mmHg 79%
    23:00 +19°C° 0 mm 2 m/s 746 mmHg 81%

    1 Julho, Segunda-feira

    Tempo Temperatura Precipitação Vento Pressão Humidade
    00:00 +19°C° 0 mm 2 m/s 746 mmHg 84%
    01:00 +18°C° 0 mm 2 m/s 745 mmHg 86%
    02:00 +18°C° 0 mm 2 m/s 745 mmHg 87%
    03:00 +18°C° 0 mm 2 m/s 745 mmHg 88%
    04:00 +17°C° 0 mm 2 m/s 745 mmHg 89%
    05:00 +19°C° 0 mm 3 m/s 745 mmHg 81%
    06:00 +21°C° 0 mm 3 m/s 745 mmHg 74%
    07:00 +24°C° 0 mm 3 m/s 745 mmHg 66%
    08:00 +25°C° 0 mm 3 m/s 745 mmHg 63%
    09:00 +27°C° 0 mm 3 m/s 745 mmHg 59%
    10:00 +29°C° 0 mm 3 m/s 745 mmHg 56%
    11:00 +30°C° 0 mm 3 m/s 744 mmHg 54%
    12:00 +31°C° 0 mm 3 m/s 744 mmHg 53%
    13:00 +33°C° 0 mm 3 m/s 744 mmHg 51%
    14:00 +33°C° 0 mm 4 m/s 743 mmHg 51%
    15:00 +33°C° 0 mm 4 m/s 743 mmHg 51%
    16:00 +33°C° 0 mm 4 m/s 742 mmHg 52%
    17:00 +29°C° 1.2 mm 5 m/s 742 mmHg 63%
    18:00 +27°C° 1.2 mm 6 m/s 742 mmHg 74%
    19:00 +23°C° 1.2 mm 7 m/s 742 mmHg 85%
    20:00 +22°C° 1.5 mm 5 m/s 742 mmHg 88%
    21:00 +21°C° 1.5 mm 4 m/s 742 mmHg 90%
    22:00 +20°C° 1.5 mm 3 m/s 742 mmHg 93%
    23:00 +20°C° 0.6 mm 3 m/s 742 mmHg 94%
    Mostrar mais